TimeMDT,TemperatureF,Dew PointF,Humidity,Sea Level PressureIn,VisibilityMPH,Wind Direction,Wind SpeedMPH,Gust SpeedMPH,PrecipitationIn,Events,Conditions,WindDirDegrees,DateUTC
12:53 AM,69.1,30.0,23,29.70,10.0,SW,5.8,-,N/A,,Scattered Clouds,230,2013-06-25 06:53:00
1:53 AM,60.1,33.1,36,29.74,10.0,SW,4.6,-,N/A,,Clear,230,2013-06-25 07:53:00
2:53 AM,57.9,36.0,44,29.78,10.0,WNW,5.8,-,N/A,,Clear,290,2013-06-25 08:53:00
3:53 AM,59.0,36.0,42,29.80,10.0,SW,8.1,-,N/A,,Mostly Cloudy,230,2013-06-25 09:53:00
4:53 AM,57.9,37.9,47,29.81,10.0,Calm,Calm,-,N/A,,Mostly Cloudy,0,2013-06-25 10:53:00
5:53 AM,59.0,37.0,44,29.83,10.0,Calm,Calm,-,N/A,,Overcast,0,2013-06-25 11:53:00
6:53 AM,60.1,39.9,47,29.86,10.0,WSW,4.6,-,N/A,,Partly Cloudy,240,2013-06-25 12:53:00
7:53 AM,63.0,39.9,43,29.88,10.0,WSW,5.8,-,N/A,,Clear,250,2013-06-25 13:53:00
8:53 AM,66.9,37.9,34,29.88,10.0,SW,11.5,-,N/A,,Scattered Clouds,220,2013-06-25 14:53:00
9:53 AM,71.1,39.0,31,29.87,10.0,WSW,10.4,-,N/A,,Partly Cloudy,240,2013-06-25 15:53:00
10:53 AM,75.0,36.0,24,29.86,10.0,WNW,9.2,18.4,N/A,,Clear,290,2013-06-25 16:53:00
11:53 AM,78.1,35.1,21,29.85,10.0,WSW,11.5,21.9,N/A,,Partly Cloudy,250,2013-06-25 17:53:00
12:53 PM,79.0,34.0,20,29.85,10.0,West,12.7,28.8,N/A,,Partly Cloudy,270,2013-06-25 18:53:00
1:53 PM,82.9,35.1,18,29.85,10.0,West,17.3,26.5,N/A,,Partly Cloudy,280,2013-06-25 19:53:00
2:53 PM,82.9,34.0,17,29.86,10.0,West,15.0,25.3,N/A,,Partly Cloudy,280,2013-06-25 20:53:00
3:53 PM,84.0,33.1,16,29.85,10.0,West,15.0,26.5,N/A,,Partly Cloudy,270,2013-06-25 21:53:00
4:53 PM,84.0,33.1,16,29.85,10.0,West,16.1,23.0,N/A,,Mostly Cloudy,260,2013-06-25 22:53:00
5:53 PM,80.1,35.1,20,29.84,10.0,WSW,15.0,20.7,N/A,,Mostly Cloudy,250,2013-06-25 23:53:00
6:53 PM,79.0,35.1,20,29.85,10.0,SW,12.7,-,N/A,,Scattered Clouds,220,2013-06-26 00:53:00
7:53 PM,75.0,41.0,29,29.86,10.0,SW,4.6,-,N/A,,Partly Cloudy,220,2013-06-26 01:53:00
8:53 PM,64.9,41.0,42,29.89,10.0,SW,4.6,-,N/A,,Partly Cloudy,220,2013-06-26 02:53:00
9:53 PM,64.9,41.0,42,29.91,10.0,Calm,Calm,-,N/A,,Clear,0,2013-06-26 03:53:00
10:53 PM,57.0,43.0,59,29.95,10.0,Calm,Calm,-,N/A,,Partly Cloudy,0,2013-06-26 04:53:00
11:53 PM,55.9,44.1,64,29.95,10.0,Calm,Calm,-,N/A,,Mostly Cloudy,0,2013-06-26 05:53:00